STARLINK-2443

operational
NORAD ID: 48107 Int'l Des: 2021-027 Owner: SPXS Country: US Constellation: starlink
LEOCIRCULARSTARLINK_TYPE

Über STARLINK-2443

Beschreibung wird geladen...

Live-Position

3D-Globus wird geladen...

Nächste Überflüge

Höhenverlauf

Altitude vs Time

uPlot chart will show altitude changes over time

Zweizeiliger Elementsatz

1 48107U 21027R 25251.68358410 -.00003926 00000-0 -24466-3 0 9999
2 48107 53.0534 248.6767 0002072 85.5743 274.5483 15.06416782245267
Epoch: 8. Sept. 2025 • Age: 18 hours

Aktueller Status

Höhe 550.7 km
Geschwindigkeit 7.59 km/s
Subsatellitenpunkt 45.84°N, 153.97°E
Startdatum 7. Apr. 2021
Alter 4.4 years
Typ internet

Technische Details

Klassifizierung Payload
Masse 260.00 kg
Trockenmasse 248.00 kg
Gesamtmasse 260.00 kg
Länge 0.20 m
Durchmesser 2.80 m
Spannweite 9.00 m
Form Box + pan
Hersteller SPXS
Bus-Typ Starlink
Phasenstatus In Orbit
Besitzer/Staat SPXS/US

Große Konstellationen

Loading constellations...